OBJECT AC, 57192

Orbit data source: Space-Track

You're viewing an Uncataloged Satellite

Recently launched and/or uncataloged satellites may have evolving metadata. Metadata may include but not limited to: Owner, Maufacturer, Bus, Motor, and Mission.

OBJECT AC, 57192 is a satellite in SSO that was launched on Tue, 27 Jun 2023 UTC via a SOYUZ-2-1B launch vehicle from the Vostochny Cosmodrome (VOSTO). Unknown objects in Earth's orbit typically refer to objects detected orbiting the Earth but have not yet been identified or cataloged. These objects could be anything from previously untracked satellites, spent rocket stages, debris from satellite collisions, or even natural meteoroids temporarily captured by Earth's gravity.

Loading next visibility...
Identifier
57192, 2023-091AC
Orbit
SSO
Country
Flag of TBDTBD
Related business
Manufacturer
Sputniks
Mission
Operational Commercial Communications
Bus & Motor
CUBESAT 3U?, Unknown motor
Mass
3 kg wet, 3 kg dry
Launch date (UTC)
2023-06-27 (2 years ago)
Launch vehicle
SOYUZ-2-1B
Launch site
Vostochny Cosmodrome (VOSTO)
Object type
Unknown
Shape & HBR
Box, 0.1 m
Radar Cross Section
0.035 m², Small (<0.1 m²)

Expand to show TLE details & history
Last TLE update: 6 hours ago

TLE from 6 hours ago
0 OBJECT AC
1 57192U 23091AC  25304.70142396  .00009277  00000-0  40710-3 0  9995
2 57192  97.5413   1.9657 0013050 179.2474 180.8784 15.22103128129481
Epoch: 2025-10-31T16:50Z
TLE epoch observation values (Epoch: 2025-10-31T16:50:03.030Z)
Latitude
0.00002°
Longitude
69.21099°
Altitude
511.564 km
Speed
7.603 km/s
True Right ascension
00h 07m 51s
True Declination
0° 00' 00"
Sunlit
Object was in full shadow at epoch
Visualization orbit readout
Latitude
Unknown
Longitude
Unknown
Altitude
Unknown
Speed
Unknown
Apparent Right ascension
Unknown
Apparent Declination
Unknown
Sunlit
N/A
Visualization observer readout
Local Sidereal Time
18:35:12
Azimuth
Unknown
Elevation
Unknown
Doppler factor
Unknown
Orbital elements
Apogee altitude
505.438 km
Perigee altitude
487.495 km
Semi-major axis
6,874.604 km
Eccentricity
0.00131
Inclination
97.5413°
RAAN
1.9657°
Arg. of periapsis
179.2474°
True anomaly
180.87611°
Mean anomaly
180.8784°
Eccentric anomaly
180.87726°
Mean motion
3.80778 °/min
Orbital period
94.54 mins
BSTAR
0.0004071
Loading maneuver chart data...
Computing Atmospheric mass density...
Loading historical data...
Loading historical data...
Loading historical data...
Loading historical data...
Loading historical data...
Loading historical data...
Loading historical data...

Documentation

Showing up to 5 results
|